Date,TemperatureHighF,TemperatureAvgF,TemperatureLowF,DewpointHighF,DewpointAvgF,DewpointLowF,HumidityHigh,HumidityAvg,HumidityLow,PressureMaxIn,PressureMinIn,WindSpeedMaxMPH,WindSpeedAvgMPH,GustSpeedMaxMPH,PrecipitationSumIn
2013-1-1,27,17,14,21,15,12,95,90,70,30.74,30.62,1,0,1,0.00
2013-1-2,17,15,14,15,13,12,93,92,88,30.72,30.59,0,0,0,0.00
2013-1-3,25,16,10,15,12,7,92,82,57,30.60,30.45,1,0,1,0.00
2013-1-4,44,27,18,23,16,11,87,65,41,30.59,30.46,1,0,1,0.01
2013-1-5,28,22,17,26,21,16,99,95,85,30.51,30.39,1,0,1,0.00
2013-1-6,45,32,23,30,25,21,96,77,55,30.44,30.31,1,0,1,0.04
2013-1-7,50,38,34,38,31,25,85,75,63,30.33,30.23,1,0,1,0.00
2013-1-8,56,48,42,40,37,34,78,66,54,30.38,30.21,1,0,1,0.00
2013-1-9,49,40,28,34,28,19,76,64,46,30.22,29.99,1,0,1,0.00
2013-1-10,40,29,23,29,21,14,93,73,52,30.23,30.13,1,0,1,0.01
2013-1-11,36,25,17,20,16,12,89,69,51,30.44,30.22,0,0,0,0.00
2013-1-12,32,18,10,16,10,5,87,71,48,30.53,30.42,2,0,2,0.00
2013-1-13,34,18,6,15,8,1,86,68,38,30.59,30.51,1,0,1,0.00
2013-1-14,44,26,12,25,12,5,79,59,32,30.66,30.52,1,0,1,0.00
2013-1-15,52,33,19,24,19,13,79,60,35,30.78,30.65,1,0,1,0.00
2013-1-16,58,37,23,22,18,14,70,51,25,30.79,30.68,1,0,1,0.00
2013-1-17,55,38,27,20,18,15,64,47,26,30.70,30.58,2,0,2,0.00
2013-1-18,50,36,26,20,17,13,63,48,31,30.60,30.52,1,0,2,0.00
2013-1-19,62,39,25,25,19,15,66,49,21,30.61,30.53,2,0,2,0.00
2013-1-20,50,33,23,25,19,13,90,60,30,30.66,30.54,1,0,1,0.00
2013-1-21,51,28,16,25,19,12,93,72,26,30.56,30.42,1,0,1,0.00
2013-1-22,26,20,16,24,19,14,97,94,90,30.45,30.30,1,0,1,0.00
2013-1-23,38,26,22,34,26,21,99,97,84,30.37,30.13,1,0,1,0.00
2013-1-24,59,40,29,38,34,29,99,82,43,30.42,30.32,1,0,1,0.00
2013-1-25,48,44,39,45,41,37,99,90,78,30.37,30.18,15,0,15,0.17
2013-1-26,50,38,30,38,26,23,96,65,42,30.27,30.15,2,0,2,0.00
2013-1-27,43,34,27,28,25,22,88,71,47,30.32,30.22,1,0,1,0.00
2013-1-28,38,35,32,32,29,26,88,77,67,30.33,30.22,1,0,1,0.00
2013-1-29,47,40,37,34,32,29,79,71,60,30.60,30.32,1,0,1,0.00
2013-1-30,50,44,38,36,33,29,81,67,59,30.63,30.58,1,0,1,0.00
2013-1-31,55,40,30,37,33,29,99,77,50,30.60,30.51,1,0,1,0.00
2013-2-1,56,39,28,38,32,27,99,81,46,30.63,30.51,1,0,1,0.00
2013-2-2,49,35,24,35,30,24,99,84,58,30.65,30.49,0,0,0,0.00
2013-2-3,60,44,29,33,28,21,96,60,30,30.51,30.37,1,0,1,0.00
2013-2-4,57,43,34,34,30,26,77,61,36,30.40,30.19,0,0,0,0.00
2013-2-5,52,41,35,34,28,22,73,60,43,30.28,30.13,1,0,1,0.00
2013-2-6,50,40,33,27,26,22,75,58,38,30.33,30.13,1,0,1,0.00
2013-2-7,48,36,29,28,23,16,84,61,36,30.29,30.12,1,0,1,0.00
2013-2-8,46,33,20,29,22,18,99,68,36,30.39,30.29,0,0,0,0.00
2013-2-9,49,32,18,30,24,16,90,72,46,30.44,30.34,2,0,2,0.00
2013-2-10,51,36,23,33,24,20,99,68,36,30.51,30.42,1,0,1,0.00
2013-2-11,52,36,20,33,25,17,93,69,39,30.54,30.42,1,0,1,0.00
2013-2-12,52,39,30,36,30,27,96,73,48,30.62,30.53,2,0,2,0.00
2013-2-13,48,39,33,34,31,29,89,75,51,30.65,30.58,1,0,1,0.00
2013-2-14,63,41,26,39,33,26,99,78,41,30.72,30.64,1,0,1,0.00
2013-2-15,56,41,28,40,34,28,99,79,53,30.71,30.48,1,0,1,0.00
2013-2-16,35,33,31,33,31,29,97,91,84,30.49,30.40,1,0,1,0.00
2013-2-17,50,36,26,25,23,21,82,63,33,30.43,30.28,1,0,1,0.00
2013-2-18,41,33,24,29,25,21,93,73,52,30.28,30.08,1,0,1,0.00
2013-2-21,40,35,27,26,25,22,85,67,55,30.37,30.27,2,0,2,0.00
2013-2-22,51,39,29,35,29,24,99,69,50,30.37,30.07,3,0,3,0.00
2013-2-23,45,34,26,28,23,20,92,65,46,30.55,30.23,1,0,1,0.00
2013-2-24,52,35,22,28,22,17,89,64,33,30.58,30.30,1,0,1,0.00
2013-2-25,44,36,27,34,27,20,90,70,49,30.51,30.23,15,0,15,0.02
2013-2-26,52,37,23,24,17,7,82,49,18,30.55,30.43,1,0,1,0.00
2013-2-27,53,41,29,34,24,17,66,53,35,30.53,30.45,1,0,1,0.00
2013-2-28,57,48,40,42,38,29,83,68,57,30.65,30.44,3,0,3,0.00
2013-3-1,68,50,39,40,37,34,90,65,32,30.69,30.53,1,0,1,0.00
2013-3-2,59,46,38,39,35,31,84,67,44,30.54,30.34,1,0,1,0.00
2013-3-3,51,38,26,35,19,4,78,53,20,30.46,30.35,2,0,2,0.00
2013-3-4,50,34,17,21,18,14,89,55,32,30.45,30.19,1,0,1,0.00
2013-3-5,42,34,26,32,23,17,99,67,50,30.20,29.94,1,0,1,0.00
2013-3-6,41,34,30,39,30,24,99,87,58,30.18,29.80,3,0,3,0.11
2013-3-7,53,38,24,31,25,20,86,63,33,30.27,30.18,2,0,2,0.00
2013-3-8,51,38,28,33,27,21,97,68,40,30.42,30.22,1,0,1,0.00
2013-3-9,61,41,23,26,20,15,86,51,21,30.68,30.40,2,0,2,0.00
2013-3-10,65,43,26,40,27,19,80,57,23,30.68,30.57,2,0,2,0.00
2013-3-11,57,48,37,43,40,35,93,76,59,30.60,30.47,2,0,2,0.00
2013-3-12,68,49,35,42,36,25,98,67,24,30.48,30.36,1,0,1,0.00
2013-3-13,73,53,41,41,35,30,76,54,30,30.46,30.38,0,0,0,0.00
2013-3-14,72,53,40,39,33,17,80,53,23,30.39,30.32,11,0,11,0.00
2013-3-15,62,51,40,41,37,29,86,61,31,30.46,30.40,1,0,1,0.00
2013-3-16,54,42,33,36,32,28,93,69,42,30.40,30.19,16,0,16,0.01
2013-3-17,45,36,30,28,22,16,84,57,42,30.44,30.28,1,0,1,0.01
2013-3-18,59,40,27,27,24,18,82,55,24,30.44,30.37,1,0,1,0.00
2013-3-19,51,38,28,37,27,22,99,68,38,30.40,30.04,1,0,1,0.06
2013-3-20,57,43,31,44,36,24,99,75,50,30.31,29.89,17,0,17,0.11
2013-3-21,46,35,27,28,23,18,87,64,44,30.43,30.31,1,0,1,0.00
2013-3-22,43,33,24,24,19,10,94,61,32,30.53,30.40,1,0,1,0.00
2013-3-23,28,26,24,22,21,20,87,83,77,30.53,30.50,0,0,0,0.00
2013-3-24,50,37,25,26,22,18,76,57,38,30.47,30.33,0,0,0,0.00
2013-3-25,51,42,31,31,27,23,76,56,42,30.35,30.17,0,0,0,0.00
2013-3-26,54,45,38,40,36,28,88,71,55,30.25,30.19,0,0,0,0.00
2013-3-27,63,46,30,46,39,30,99,80,43,30.26,30.17,1,0,1,0.05
2013-3-28,63,48,39,47,43,39,99,85,48,30.39,30.25,1,0,1,0.05
2013-3-29,68,53,42,49,44,42,99,77,44,30.47,30.38,1,0,1,0.02
2013-3-30,71,54,35,49,43,35,99,71,43,30.48,30.32,1,0,1,0.00
2013-3-31,69,54,36,44,40,36,99,63,38,30.34,30.19,1,0,1,0.00
2013-4-1,69,53,41,48,44,40,99,74,44,30.39,30.23,1,0,1,0.00
2013-4-2,71,52,36,43,40,36,99,70,36,30.43,30.35,2,0,2,0.00
2013-4-3,72,54,35,42,37,31,98,60,27,30.43,30.23,2,0,2,0.00
2013-4-4,68,52,42,47,42,39,99,70,40,30.24,29.99,22,0,22,0.08
2013-4-5,59,48,40,42,40,35,99,75,46,30.25,30.16,1,0,1,0.01
2013-4-6,57,47,42,41,37,33,90,69,44,30.25,30.03,3,0,3,0.05
2013-4-7,51,43,33,39,33,24,87,67,44,30.13,29.92,2,0,2,0.05
2013-4-8,52,40,28,30,27,23,90,61,39,30.47,30.13,1,0,1,0.00
2013-4-9,64,45,25,35,29,24,97,60,27,30.56,30.46,1,0,1,0.00
2013-4-10,46,45,43,36,35,34,74,68,65,30.49,30.43,1,0,1,0.00
2013-4-14,51,39,28,33,26,18,99,64,29,30.23,30.10,1,0,1,0.00
2013-4-15,48,36,31,36,32,29,99,88,55,30.34,30.11,1,0,1,0.09
2013-4-16,50,38,29,37,29,20,99,75,38,30.57,30.33,1,0,1,0.00
2013-4-17,57,41,25,30,25,12,99,61,25,30.65,30.56,1,0,1,0.00
2013-4-18,66,49,34,40,35,27,84,60,39,30.63,30.51,1,0,1,0.00
2013-4-19,61,51,44,42,39,34,77,63,44,30.52,30.39,1,0,1,0.00
2013-4-20,64,50,38,36,34,30,84,57,35,30.51,30.42,1,0,1,0.00
2013-4-21,62,48,33,41,36,30,92,66,41,30.48,30.39,1,0,1,0.00
2013-4-22,56,46,35,36,26,14,89,52,24,30.65,30.47,2,0,2,0.00
2013-4-23,67,44,24,64,14,7,68,37,10,30.63,30.38,1,0,1,0.00
2013-4-24,75,53,28,24,16,12,56,29,13,30.56,30.30,1,0,1,0.00
2013-4-25,76,57,35,37,27,19,54,36,19,30.42,30.28,5,0,5,0.00
2013-4-26,53,45,40,32,31,30,71,59,44,30.48,30.41,1,0,1,0.00
2013-6-28,62,49,33,41,36,30,91,65,41,30.14,30.02,1,0,1,0.00
2013-6-29,56,45,28,36,25,14,89,50,25,30.27,30.14,1,0,1,0.00
2013-6-30,67,47,24,64,16,7,67,33,10,30.24,30.00,0,0,0,0.00
2013-7-1,75,53,28,26,20,14,56,30,13,30.18,29.92,0,0,0,0.00
2013-7-2,76,58,36,40,30,20,58,37,19,30.06,29.91,1,0,1,0.00
2013-7-3,82,63,40,42,35,29,71,39,16,30.16,30.05,0,0,0,0.00
2013-7-4,87,68,45,47,38,30,62,38,22,30.14,29.85,14,0,14,1.07
2013-7-5,82,65,49,46,40,31,83,47,21,29.91,29.80,12,0,18,0.00
2013-7-6,87,68,42,51,38,29,75,40,18,29.86,29.74,2,0,2,0.00
2013-7-7,91,73,52,53,49,44,85,49,25,29.86,29.74,11,0,11,0.00
2013-7-8,90,73,50,50,45,40,84,45,22,29.99,29.85,11,0,14,0.00
2013-7-9,98,78,55,55,49,45,75,41,24,30.03,29.89,17,0,17,0.00
2013-7-10,96,78,60,57,50,39,74,43,23,29.97,29.80,17,0,17,0.00
2013-7-11,67,63,60,49,48,46,65,58,49,29.89,29.86,2,0,2,0.00
2013-12-1,59,52,42,47,43,35,90,71,63,30.09,29.74,0,0,0,0.02
2013-12-2,46,38,29,44,33,22,99,83,53,29.81,29.70,0,0,0,0.43
2013-12-3,30,22,13,26,17,7,99,80,52,30.03,29.80,0,0,0,0.00
2013-12-4,26,15,3,12,5,-1,84,67,47,30.09,30.02,0,0,0,0.00
2013-12-5,24,12,-1,10,4,-4,87,73,50,30.07,29.94,0,0,0,0.00
2013-12-6,14,11,10,11,8,7,93,90,85,29.97,29.79,0,0,0,0.00
2013-12-7,11,2,-12,8,-5,-16,92,73,51,30.12,29.83,0,0,0,0.00
2013-12-8,20,-1,-14,4,-8,-19,87,73,50,30.12,29.92,0,0,0,0.00
2013-12-9,32,14,0,13,5,-5,86,66,45,30.12,29.99,1,0,1,0.00
2013-12-10,35,21,12,22,15,7,96,78,60,30.03,29.97,0,0,0,0.00
2013-12-11,17,16,15,17,16,14,99,97,93,30.00,29.97,0,0,0,0.00